RH
23 22 22 22 22 22 21 20 20 20 21 21 21 18 17 16 16 15 16 17 17 17 17 17 17 15 15 14 15 16 17 18 17 17 19 21 23 25 27 29 31 33 36 37 36 35 34 35 35 37 37 35 32 31 30 31 31 31 31 31 31 32 34 36 35 34 35 37 39 39 40 41 42 43 43 43 43 43 43 44 44 44 43 40 39
22 22 21 21 21 20 19 18 19 20 21 21 20 19 17 16 15 15 15 15 15 16 15 16 15 14 14 14 14 15 15 17 17 16 16 17 19 22 24 26 28 29 31 33 35 35 34 33 33 34 36 37 35 33 31 30 30 31 31 30 30 30 30 32 33 33 33 33 36 38 40 42 42 41 42 41 42 43 44 44 45 45 44 43 41
21 21 21 21 20 19 19 18 18 19 20 20 19 18 17 16 16 14 14 14 14 15 14 14 14 13 13 13 13 14 15 15 16 16 15 15 16 18 19 22 25 27 29 29 31 33 32 33 33 33 34 35 36 36 35 33 32 30 30 30 30 30 30 30 32 32 32 31 33 35 38 42 43 44 45 45 46 47 48 47 47 46 45 44 44
21 21 21 21 20 20 20 19 18 19 19 19 19 18 18 17 16 15 14 14 14 14 13 13 13 14 14 14 15 16 16 16 16 16 16 16 16 15 17 20 23 26 28 28 29 30 30 31 31 32 33 34 34 35 36 37 35 33 31 30 30 30 30 31 31 31 31 32 32 32 35 38 40 42 45 47 48 49 49 48 48 47 45 44 43
20 21 21 21 21 21 21 20 20 19 19 19 18 19 19 18 17 16 15 14 13 13 13 14 15 16 16 17 17 18 18 18 17 17 17 17 17 15 16 18 21 23 26 29 29 29 28 29 29 30 31 32 33 34 35 35 36 36 35 34 33 31 31 31 31 32 32 32 30 29 30 32 35 37 38 40 43 45 45 47 47 47 46 44 42
21 20 21 21 22 21 21 20 19 17 18 18 18 18 19 18 17 16 15 14 14 13 13 14 15 16 17 18 18 18 18 18 19 18 18 19 18 18 18 18 18 21 23 27 29 29 27 26 27 28 30 31 32 33 33 33 34 35 36 36 36 35 33 32 31 31 32 32 31 30 29 29 30 33 34 35 38 41 42 44 45 45 46 45 43
22 21 21 21 22 21 20 18 17 16 16 16 16 17 17 17 16 15 15 14 14 14 14 14 15 16 17 18 18 17 18 19 19 19 19 19 18 19 19 18 18 19 21 24 27 26 26 25 25 26 27 29 29 30 32 32 33 33 34 34 35 36 36 35 33 31 31 31 31 32 31 30 29 30 32 33 36 39 39 40 41 42 43 43 42
26 23 22 22 22 21 20 19 18 16 16 16 16 16 16 16 16 15 15 15 16 15 15 15 16 17 18 18 18 18 19 19 19 19 19 18 19 19 19 18 18 18 20 22 23 22 22 23 23 24 25 26 27 28 29 31 31 32 33 33 33 34 35 35 34 33 32 31 31 32 32 32 32 32 31 31 34 35 34 34 34 35 36 37 38
30 28 25 23 22 22 21 21 19 18 18 18 17 17 17 17 17 17 17 17 18 18 18 18 19 19 19 19 19 20 20 20 18 17 17 17 17 17 17 19 18 18 19 18 19 20 19 21 21 22 22 23 24 25 27 29 30 30 31 31 31 32 32 32 33 32 32 31 31 32 32 32 32 33 32 31 31 30 30 30 30 30 31 33 35
33 32 30 27 25 24 23 23 22 22 21 20 20 20 20 20 20 20 19 20 21 22 22 22 22 21 20 20 21 21 20 19 17 16 16 16 17 16 17 18 18 19 19 19 20 19 20 20 20 20 20 22 23 24 24 25 26 27 28 28 29 31 31 32 33 33 33 33 32 32 32 32 33 34 33 33 32 31 31 31 31 30 32 33 34
36 35 34 33 30 28 26 24 24 23 22 22 21 21 22 23 24 23 22 23 25 25 25 25 23 22 23 22 22 22 21 19 17 17 16 16 17 18 17 18 19 20 21 22 22 22 21 21 20 20 21 21 22 22 23 24 25 27 27 28 29 30 31 33 34 35 36 36 36 36 36 35 35 35 35 36 37 36 35 34 34 34 35 36 35
38 38 38 37 36 34 32 28 26 25 24 23 23 23 24 25 25 26 26 27 27 28 28 27 25 24 25 24 24 23 21 19 17 17 17 17 18 20 21 21 22 23 23 24 23 23 22 22 22 22 22 22 23 24 25 26 27 28 29 29 30 31 32 33 34 35 37 38 38 39 39 38 37 37 38 39 39 39 39 38 38 37 37 37 36
40 41 41 42 41 40 38 36 33 31 28 27 26 26 26 27 27 28 29 30 31 31 30 28 26 27 28 27 24 22 21 20 19 19 19 19 21 23 25 25 25 25 25 26 26 27 27 26 27 27 27 28 28 29 30 30 31 32 33 33 34 34 35 34 35 37 39 40 41 40 39 40 40 37 37 39 40 41 41 40 40 40 39 38 37
41 41 42 43 44 45 45 45 43 41 38 35 33 31 30 29 29 30 33 34 34 33 32 30 28 28 29 27 25 23 23 23 23 24 23 23 24 26 27 29 29 30 30 31 32 33 33 33 33 33 34 35 36 36 37 37 38 39 38 38 38 38 39 38 38 42 45 46 47 43 41 44 44 40 41 44 44 43 43 42 41 41 41 41 42
40 41 41 42 43 45 47 48 48 49 48 45 43 40 37 36 35 34 36 37 36 34 34 31 30 30 31 31 29 28 27 28 29 29 30 30 31 33 35 36 36 36 36 37 38 38 38 38 38 37 38 39 40 43 44 45 46 45 44 43 43 44 44 42 44 49 52 52 52 47 45 48 49 47 49 52 51 48 48 48 47 46 46 45 46
40 40 40 41 42 42 44 46 48 49 50 50 48 46 44 44 41 39 39 38 39 39 37 35 34 35 35 36 35 32 31 31 33 33 35 37 39 41 42 43 43 42 41 42 42 43 43 43 42 43 43 44 48 51 52 53 53 51 51 50 50 50 48 47 49 53 55 55 55 53 51 52 53 54 56 58 57 57 59 58 55 54 52 50 47
40 41 41 41 41 41 41 43 44 45 46 47 47 46 46 47 46 44 42 42 43 43 40 37 37 38 38 37 37 35 33 33 35 37 38 41 44 45 45 46 46 46 45 47 47 47 48 49 50 51 51 52 55 57 59 59 57 56 55 54 53 52 49 50 56 57 57 58 58 58 57 57 59 61 62 63 62 63 65 61 56 59 59 55 50
40 40 40 41 41 41 41 41 41 42 43 43 44 44 45 47 48 47 46 46 45 44 41 40 40 40 39 38 38 37 36 36 38 40 41 43 44 46 47 47 47 47 48 49 50 50 52 54 56 55 53 54 58 59 60 60 57 55 54 53 53 49 47 52 57 57 57 59 60 61 61 60 60 61 61 62 62 63 62 57 56 62 63 58 55
39 40 41 41 41 42 41 40 39 38 38 40 41 42 43 46 48 49 49 49 47 44 42 42 42 41 40 40 41 41 41 42 43 44 45 46 47 48 48 48 47 48 49 49 50 52 54 56 57 57 58 59 60 60 60 58 56 54 53 52 51 46 46 51 53 52 53 56 56 57 58 56 57 56 55 56 57 57 56 54 57 61 60 58 60
37 38 39 40 41 41 41 39 38 36 36 37 39 40 41 43 45 47 50 51 48 45 43 42 42 42 42 42 44 45 46 47 48 48 49 49 50 50 50 49 48 49 50 51 51 53 55 57 58 59 59 59 58 58 57 56 54 54 53 52 49 45 47 49 48 50 56 57 57 56 54 51 51 52 52 52 54 55 56 57 61 65 65 63 62
34 35 37 39 40 40 40 39 38 36 35 36 37 38 38 39 41 44 48 51 48 44 41 41 42 43 43 44 46 47 48 49 50 50 50 50 51 50 49 48 49 50 51 51 52 52 54 55 55 56 56 56 55 56 56 56 56 55 53 51 48 46 48 49 50 57 63 62 61 60 56 54 54 54 55 55 56 57 58 59 63 68 69 67 64
31 33 35 38 39 39 39 39 39 37 36 35 34 35 36 37 38 40 44 47 46 43 41 41 42 43 43 45 46 48 49 50 49 49 49 48 48 48 47 48 50 51 51 50 51 53 54 54 55 55 56 55 56 56 56 56 56 55 53 51 49 49 50 49 52 61 64 60 57 55 53 54 54 53 53 53 52 53 55 56 59 61 63 64 66
26 28 31 35 37 38 37 38 39 39 38 36 35 36 36 36 37 38 41 44 43 42 41 43 44 45 45 46 46 48 48 48 47 47 47 48 48 48 49 50 51 51 50 51 54 55 56 57 58 58 58 58 58 57 56 55 54 54 53 51 49 48 48 46 47 54 59 57 56 54 52 52 52 51 52 52 51 52 54 54 55 58 59 60 64
22 24 26 29 34 36 37 36 38 39 40 39 38 38 38 38 37 39 41 42 42 41 43 44 45 47 47 47 48 48 48 48 47 47 48 49 49 51 52 52 53 54 54 56 58 58 59 60 60 60 60 59 58 57 56 55 53 51 49 47 44 43 43 42 42 46 50 50 50 50 49 49 49 48 49 51 52 53 55 57 61 65 65 65 69
22 22 23 25 29 34 36 37 37 38 40 41 41 41 40 40 40 40 42 42 42 43 44 46 47 48 48 48 48 48 48 48 48 49 50 51 52 53 54 56 57 58 59 60 61 62 62 63 62 61 59 58 57 56 54 51 49 46 43 42 41 40 41 43 43 43 44 45 45 45 45 45 45 44 44 45 47 49 54 59 64 66 67 67 69
20 22 22 23 25 29 33 36 37 37 39 40 42 42 42 41 41 42 43 44 44 44 46 47 49 49 48 48 48 49 50 50 51 52 53 54 55 57 58 59 59 59 59 60 62 62 62 61 59 59 58 57 55 51 47 43 40 38 37 35 35 35 36 36 36 36 36 36 37 38 39 40 40 41 43 44 45 46 48 52 55 56 57 57 60
18 19 20 21 21 23 28 32 35 37 38 39 41 43 44 43 42 43 45 46 46 46 48 49 49 49 49 49 49 51 52 54 54 55 55 56 57 58 58 57 56 57 57 58 58 57 57 58 58 58 55 50 44 39 35 33 30 29 28 28 28 29 30 29 29 29 29 29 30 31 32 33 35 36 38 40 44 47 48 48 48 49 50 51 57
17 18 19 19 19 20 22 25 29 33 37 39 41 43 45 46 45 45 46 48 49 48 49 50 49 49 49 50 52 53 54 55 55 56 56 56 56 56 55 55 56 56 56 55 55 56 57 56 53 47 41 35 32 30 28 28 28 27 27 27 28 28 29 28 28 29 29 30 30 30 31 33 35 36 38 41 44 46 48 48 48 48 49 50 55
19 19 20 20 19 19 19 21 24 28 32 36 39 42 45 48 48 47 47 49 51 50 50 50 51 51 51 52 52 52 52 54 56 57 57 56 56 56 57 57 57 56 56 55 55 54 50 45 38 33 30 29 29 29 28 28 28 27 27 27 27 27 27 28 29 30 30 30 30 30 30 31 31 33 36 41 43 45 47 48 47 47 50 51 52
21 22 21 20 20 20 19 21 23 25 28 32 35 39 42 46 49 49 48 49 51 52 53 53 54 54 54 52 52 51 52 53 55 57 57 58 58 58 59 58 57 56 55 52 48 42 36 32 30 29 29 29 29 29 29 28 27 26 27 27 27 28 29 30 30 30 30 29 29 29 30 31 31 32 33 35 38 42 46 48 47 48 49 51 52
23 23 23 22 22 21 22 22 23 24 27 29 31 35 37 42 46 48 49 49 51 52 54 55 56 56 55 54 53 54 54 55 56 56 57 57 57 59 60 58 55 51 46 41 36 32 31 30 29 29 29 29 29 28 28 27 26 27 27 29 30 30 31 31 31 30 29 29 30 30 32 33 34 36 37 38 40 42 44 46 50 53 56 57 58
25 25 25 25 25 24 24 25 25 26 27 29 30 32 34 38 43 46 48 49 50 51 53 54 54 56 57 57 56 56 55 55 56 56 57 58 59 58 54 48 42 38 35 33 31 32 31 31 30 30 29 29 29 28 27 27 28 29 30 32 34 34 33 32 32 31 30 30 30 31 32 33 34 37 39 41 42 43 46 52 58 62 66 67 68
29 28 28 28 28 28 28 27 27 27 28 29 30 32 34 37 41 44 47 49 51 52 53 54 55 55 56 57 56 55 55 55 57 59 61 60 55 47 39 33 31 31 32 32 32 33 32 31 30 29 29 29 29 29 28 29 30 31 33 35 36 35 33 33 32 31 31 31 31 32 32 31 34 37 39 43 48 53 61 70 74 75 75 74 76
32 31 30 29 29 29 29 28 29 30 31 32 34 34 36 38 41 43 45 48 51 54 55 56 57 59 60 60 59 58 59 61 61 59 55 47 39 33 30 31 32 32 32 33 34 33 32 31 30 30 30 31 30 30 31 32 33 34 36 37 35 34 33 33 32 31 31 31 32 32 32 31 33 37 40 45 54 62 71 78 81 82 84 83 85
34 33 32 31 30 30 30 30 31 32 34 35 36 37 39 41 43 43 45 47 52 55 56 56 58 59 61 62 61 59 57 57 53 47 40 34 31 31 32 33 33 33 34 35 35 33 31 30 31 32 32 32 32 33 34 34 36 38 38 35 33 33 32 32 31 33 33 32 32 33 32 31 33 37 40 44 50 59 70 80 86 88 89 89 92
35 35 34 34 34 33 33 33 34 36 38 40 42 46 49 51 50 49 50 52 55 56 57 58 60 59 56 54 53 50 46 43 40 35 33 32 32 34 34 35 35 36 36 35 33 32 31 32 33 34 34 34 35 36 36 37 38 40 38 36 34 33 33 33 34 36 36 35 34 35 34 33 33 36 40 44 47 53 64 78 87 90 89 91 95
37 37 37 37 37 37 38 38 40 44 47 49 49 52 56 57 56 54 55 57 59 59 58 58 58 55 50 46 44 41 37 36 34 33 33 34 35 35 36 37 36 36 35 34 33 32 32 33 35 37 37 37 37 38 38 39 40 40 38 36 36 36 37 38 38 39 40 39 37 37 38 37 37 40 44 46 47 49 59 72 83 87 87 87 90
39 39 39 39 40 43 46 47 49 53 55 53 51 52 54 55 55 54 53 54 55 52 49 47 46 43 41 39 37 36 35 35 35 36 35 36 37 37 37 36 36 35 34 34 33 33 34 37 38 40 40 40 40 39 40 41 41 39 37 37 39 41 42 43 42 42 44 44 42 40 41 42 43 45 49 49 47 48 54 63 72 79 83 84 85
38 39 42 43 43 47 52 54 53 54 55 53 51 51 52 52 51 50 49 49 48 43 38 37 37 37 36 36 36 36 37 38 39 40 39 38 38 38 38 37 37 36 35 35 35 35 37 41 43 43 44 43 42 42 43 43 41 39 38 40 43 45 46 47 46 45 46 47 46 45 46 47 47 48 51 53 52 52 54 57 60 64 71 79 85
42 40 41 43 43 45 50 53 51 49 52 53 52 51 50 49 48 48 47 45 42 39 37 36 37 38 39 39 39 39 40 41 41 41 40 39 39 38 38 39 38 38 37 39 40 40 42 44 45 46 47 47 47 47 47 45 42 40 40 42 46 48 48 48 50 48 46 46 47 47 47 49 50 52 56 58 58 58 62 65 64 62 64 71 80
52 47 44 42 40 40 44 49 49 48 51 55 55 52 51 51 50 50 47 42 39 39 40 40 41 42 42 42 41 41 41 41 42 42 42 41 41 40 39 41 41 41 42 44 45 45 45 46 47 47 49 50 50 49 48 45 41 40 40 43 47 50 49 49 51 50 47 45 46 45 44 46 49 54 57 59 59 59 62 67 69 69 67 68 71
53 52 49 46 43 40 42 49 51 48 47 50 50 49 51 53 52 48 44 42 41 42 42 43 43 44 44 43 43 43 42 42 43 44 44 44 44 44 44 45 46 47 47 48 48 48 48 48 49 51 51 51 51 50 47 42 39 38 39 42 46 49 49 49 50 50 48 46 44 43 43 44 48 53 57 59 59 59 58 60 62 65 67 67 67
47 49 49 49 48 46 46 52 56 54 50 47 47 49 52 53 52 48 46 46 46 46 45 45 47 48 48 49 48 47 47 46 46 47 48 48 49 49 49 50 50 51 51 51 51 51 51 52 53 54 54 53 52 51 46 41 39 39 40 42 45 48 48 49 50 51 50 47 44 43 42 43 45 50 55 58 61 61 60 59 59 60 63 67 69
44 45 46 47 46 46 48 53 58 59 55 52 52 53 53 51 50 49 49 49 49 48 48 49 51 51 52 52 52 51 51 51 52 52 52 53 53 54 53 53 54 54 54 53 53 54 56 57 57 57 57 55 54 51 47 42 41 41 42 44 46 48 49 49 51 53 52 50 46 44 43 43 43 45 48 52 56 58 59 60 60 61 64 68 72
45 45 45 44 44 46 48 51 53 55 55 54 54 54 53 51 50 51 51 51 52 52 53 54 54 54 54 54 54 54 55 56 56 57 57 57 58 58 57 58 57 56 55 56 57 59 60 60 60 59 58 57 56 53 49 46 44 43 44 46 49 49 49 50 52 54 55 54 51 47 45 44 45 46 46 47 49 51 54 55 57 59 61 65 67
47 48 48 48 48 50 51 52 52 52 53 53 53 52 52 52 52 52 53 54 55 56 57 57 57 57 57 58 58 59 59 60 60 60 61 61 61 61 61 61 60 58 58 60 62 63 64 64 63 62 61 61 60 58 54 50 48 47 48 50 51 51 51 52 54 54 54 54 53 52 50 48 48 49 50 49 49 50 52 53 55 56 57 59 61
51 52 52 53 53 54 54 54 54 53 53 52 53 53 54 55 55 56 57 59 60 60 60 61 61 61 61 61 61 62 62 63 63 63 63 63 63 63 63 62 61 60 62 64 67 69 69 69 67 66 65 65 65 63 58 54 52 52 53 54 54 54 53 55 56 56 55 53 53 54 55 54 52 51 51 50 50 51 52 53 54 55 57 58 60
55 56 56 56 55 56 55 55 55 55 55 56 57 57 58 59 60 61 62 63 63 64 64 64 64 64 63 63 63 63 64 64 64 64 64 64 63 64 63 62 61 62 65 68 71 73 73 71 69 68 68 69 70 68 63 59 58 57 58 59 60 59 58 59 59 59 57 57 57 57 57 57 56 54 52 50 48 48 50 51 52 53 54 56 57
59 57 57 56 56 55 56 57 57 58 59 61 61 62 63 64 64 65 66 67 67 67 67 67 67 66 66 66 66 66 66 65 65 65 64 63 62 63 63 63 63 65 68 71 75 75 75 72 70 69 70 73 73 70 66 64 62 62 62 62 64 64 64 63 63 62 61 61 60 60 59 58 57 56 55 53 51 48 47 47 48 49 51 52 54
68 63 59 58 59 60 61 63 63 64 65 66 66 67 67 67 68 68 68 68 68 69 69 69 69 69 69 69 69 68 67 66 65 64 63 62 62 64 64 65 66 67 71 75 77 77 75 73 72 72 74 76 74 70 67 67 66 65 64 64 64 65 65 65 64 64 64 63 63 63 62 60 58 57 57 57 55 52 49 47 47 47 48 48 49
83 78 72 67 66 67 69 70 71 71 72 72 72 72 72 72 72 72 71 71 72 72 72 72 72 71 70 69 68 67 66 64 63 62 62 62 63 64 65 67 69 73 77 79 78 75 73 73 72 74 76 76 72 69 67 68 67 65 64 64 63 62 62 61 61 61 63 64 65 66 66 64 61 59 57 58 58 56 54 52 50 50 50 50 51